"Pseudo-MPEC" for ZG83327

Created 2018 Apr 20 13:18:13 UT using Find_Orb

Click here for an explanation of pseudo-MPECs

 
 Astrometry: 
     ZG83327  C2018 04 15.25664 12 04 40.49 -00 43 34.8          21.7 GUNEOCPG96
     ZG83327  C2018 04 15.26180 12 04 40.23 -00 43 31.2                UNEOCPG96
     ZG83327  C2018 04 15.26696 12 04 39.89 -00 43 28.7          21.6 GUNEOCPG96
     ZG83327  C2018 04 15.27214 12 04 39.59 -00 43 25.9          21.9 GUNEOCPG96
     ZG83327  C2018 04 15#FAstrometryHlw0]sVI7WQlAua1wSI\8o!^xBb.Il_3*X+:(vL3H01
     ZG83327  C2018 04 15Bmc)$:7'v)PxhNtPOt8RAR?%0$?lTEvlCZJ]qR4T\fB1`L:5?l0qH01
     ZG83327  C2018 04 15e5[i.NCT.sFQSqh$#Y_hUJO(d!VNru=SdK[aYC[NhQ=m.?mb[rkcH01
     ZG83327  C2018 04 15\/dm76hTD-YYn9#)sredacted;+LJH?XBy%*ZwuxZ^'uSo)QVb0%H01
     ZG83327 |C2018 04 19!3.t?ZDASV=R6Gggve!Z'(/4x8eT!vYcBQ\VOXd,upvC]cse.*m=807
     ZG83327 |C2018 04 19rE0^T1Z3gw/Z@H8*T3*08m^:XlxLcqqs/K*C9L@DTBlFL4'*D?x\807
     ZG83327 |C2018 04 1930N2\8].1F3piv/)@KgdRgx3LwR$Y?4.see+qBYehl[WMWAVR_[?807
     ZG83327 |C2018 04 20#g,2S,62Kt1vNTU:B!uTN-O^_4t$k;dGwg3(8an46HCPDE%RM2'f807
     ZG83327 |C2018 04 20Ko:OaUn.KE/N2v0K7$9M]W%\]WcI_Ou.CJoyrXJ=ARP=cUTAn\HQ807
     ZG83327 |C2018 04 209'3v^wFwu`JEU#rgM5.Z?KwtZriptt/!b`:_`7?[QCZ-FRtNEOCP807

Station data:
(807) Cerro Tololo Observatory, La Serena  (S30.169136 W70.805900)  Chile.
   Observers M. Holman, J. Kavelaars, T. Grav, W. Fraser. Measurer M. Holman.
   4-m Blanco reflector + CCD.
(G96) Mt. Lemmon Survey  (N32.442754 W110.788720)  US/Arizona.  Observers E.
   J. Christensen, A. R. Gibbs, A. D. Grauer, R. E. Hill, J. A. Johnson, R.
   A. Kowalski, S. M. Larson, F. C. Shelly. 1.5-m reflector + CCD.
(H01) Magdalena Ridge Observatory, Socorro  (N33.985151 W107.189200)  US/New
   Mexico.  Observers W. H. Ryan, E. V. Ryan. Measurer W. H. Ryan. 2.4-m
   f/8.9 reflector + CCD.

Orbital elements:  ZG83327
   Perihelion 2018 Nov 28.330919 +/- 37.1 TT =  7:56:31 (JD 2458450.830919)
Epoch 2018 Apr 20.0 TT = JDT 2458228.5   Earth MOID: 0.6600   AutoNEOCP
M 294.90998 +/- 15                  (J2000 ecliptic)
n   0.29276186 +/- 0.0244           Peri.   94.97826 +/- 9
a   2.24625836 +/- 0.125            Node   193.31852 +/- 0.43
e   0.2583106 +/- 0.0637            Incl.    5.21665 +/- 0.48
P   3.37                   H 19.2   G  0.15   U 10.3  
q 1.66602585 +/- 0.0539    Q 2.82649087 +/- 0.318
From 14 observations 2018 Apr. 15-20; mean residual 0".35
Residuals in arcseconds: 
180415 G96  .73+  .57-    180415 H01  .15-  .00     180419 807  .12+  .56+    
180415 G96  .80+  .37+    180415 H01  .10-  .15-    180420 807  .16-  .37-    
180415 G96  .32-  .21+    180415 H01  .05-  .15-    180420 807  .28-  .09+    
180415 G96  .84-  .33+    180419 807  .04+  .06-    180420 807  .23+  .05+    
180415 H01  .12-  .08-    180419 807  .10+  .21-    

Ephemerides (geocentric):
Date (UTC) HH   RA              Dec         delta   r     elong  mag " sig PA
---- -- -- --  ------------   ------------  ------ ------ -----  --- ---- ---
2018 04 20 13  12 00 41.730   -00 00 14.76  1.2105 2.1404 150.0 22.1  .17  51
2018 04 20 14  12 00 40.011   +00 00 04.56  1.2106 2.1402 150.0 22.1  .19  49
2018 04 20 15  12 00 38.295   +00 00 23.87  1.2107 2.1401 149.9 22.1  .22  48
2018 04 20 16  12 00 36.581   +00 00 43.16  1.2108 2.1400 149.9 22.1  .24  47
2018 04 20 17  12 00 34.870   +00 01 02.43  1.2109 2.1399 149.8 22.1  .26  46
2018 04 20 18  12 00 33.162   +00 01 21.68  1.2110 2.1397 149.8 22.1  .29  45
2018 04 20 19  12 00 31.457   +00 01 40.91  1.2111 2.1396 149.7 22.1  .31  45
2018 04 20 20  12 00 29.754   +00 02 00.12  1.2112 2.1395 149.7 22.1  .34  44
2018 04 20 21  12 00 28.054   +00 02 19.31  1.2113 2.1393 149.6 22.1  .36  44
2018 04 20 22  12 00 26.357   +00 02 38.48  1.2115 2.1392 149.6 22.1  .39  44
2018 04 20 23  12 00 24.662   +00 02 57.63  1.2116 2.1391 149.5 22.1  .42  44
2018 04 21 00  12 00 22.971   +00 03 16.77  1.2117 2.1390 149.5 22.1  .44  43
2018 04 21 01  12 00 21.282   +00 03 35.88  1.2118 2.1388 149.4 22.1  .47  43
2018 04 21 02  12 00 19.595   +00 03 54.97  1.2119 2.1387 149.4 22.1  .50  43
2018 04 21 03  12 00 17.912   +00 04 14.05  1.2120 2.1386 149.3 22.1  .53  43
2018 04 21 04  12 00 16.231   +00 04 33.10  1.2121 2.1385 149.3 22.1  .56  43
2018 04 21 05  12 00 14.554   +00 04 52.14  1.2123 2.1383 149.2 22.1  .58  43
2018 04 21 06  12 00 12.878   +00 05 11.15  1.2124 2.1382 149.2 22.1  .61  43
2018 04 21 07  12 00 11.206   +00 05 30.15  1.2125 2.1381 149.1 22.1  .64  43
2018 04 21 08  12 00 09.537   +00 05 49.12  1.2126 2.1379 149.1 22.1  .67  44
2018 04 21 09  12 00 07.870   +00 06 08.08  1.2127 2.1378 149.0 22.1  .71  44
2018 04 21 10  12 00 06.206   +00 06 27.01  1.2128 2.1377 149.0 22.1  .74  44
2018 04 21 11  12 00 04.545   +00 06 45.93  1.2130 2.1376 148.9 22.1  .77  44
2018 04 21 12  12 00 02.886   +00 07 04.83  1.2131 2.1374 148.9 22.1  .80  44
2018 04 21 13  12 00 01.231   +00 07 23.70  1.2132 2.1373 148.8 22.1  .84  44
2018 04 21 14  11 59 59.578   +00 07 42.56  1.2133 2.1372 148.8 22.1  .87  44
2018 04 21 15  11 59 57.928   +00 08 01.40  1.2134 2.1371 148.7 22.1  .90  45
2018 04 21 16  11 59 56.281   +00 08 20.21  1.2135 2.1369 148.7 22.1  .94  45
2018 04 21 17  11 59 54.637   +00 08 39.01  1.2137 2.1368 148.6 22.1  .97  45
2018 04 21 18  11 59 52.995   +00 08 57.78  1.2138 2.1367 148.6 22.1  1.0  45
2018 04 21 19  11 59 51.357   +00 09 16.54  1.2139 2.1365 148.5 22.1  1.0  45
2018 04 21 20  11 59 49.721   +00 09 35.28  1.2140 2.1364 148.5 22.1  1.1  46
2018 04 21 21  11 59 48.088   +00 09 53.99  1.2141 2.1363 148.4 22.1  1.1  46
2018 04 21 22  11 59 46.457   +00 10 12.69  1.2143 2.1362 148.4 22.1  1.2  46
2018 04 21 23  11 59 44.830   +00 10 31.36  1.2144 2.1360 148.3 22.1  1.2  46
2018 04 22 00  11 59 43.206   +00 10 50.02  1.2145 2.1359 148.3 22.1  1.2  46
2018 04 22 01  11 59 41.584   +00 11 08.65  1.2146 2.1358 148.2 22.1  1.3  47
2018 04 22 02  11 59 39.965   +00 11 27.27  1.2148 2.1357 148.2 22.1  1.3  47
2018 04 22 03  11 59 38.349   +00 11 45.86  1.2149 2.1355 148.1 22.1  1.3  47
2018 04 22 04  11 59 36.736   +00 12 04.44  1.2150 2.1354 148.1 22.1  1.4  47
2018 04 22 05  11 59 35.126   +00 12 22.99  1.2151 2.1353 148.0 22.1  1.4  48
2018 04 22 06  11 59 33.518   +00 12 41.52  1.2153 2.1351 148.0 22.1  1.5  48
2018 04 22 07  11 59 31.913   +00 13 00.03  1.2154 2.1350 147.9 22.1  1.5  48
2018 04 22 08  11 59 30.312   +00 13 18.53  1.2155 2.1349 147.9 22.1  1.6  48
2018 04 22 09  11 59 28.713   +00 13 37.00  1.2156 2.1348 147.8 22.1  1.6  48
2018 04 22 10  11 59 27.117   +00 13 55.45  1.2158 2.1346 147.8 22.1  1.6  49
2018 04 22 11  11 59 25.524   +00 14 13.88  1.2159 2.1345 147.8 22.1  1.7  49
2018 04 22 12  11 59 23.934   +00 14 32.29  1.2160 2.1344 147.7 22.1  1.7  49